Date String (YYYY-MM-DD hh:mm:ss) UTC,Instrument flags,absolute air pressure of the measurement (hPa),sample flow rate (lpm),inlet stack bypass flow (lpm),air temperature of the measurement (°C),ambient temperature measured by the external sensor (°C),aerosol sample conditioner tube jacket temperature (°C),OPC LED temperature (°C),internal box temperature (°C),relative humidity of the measurement (%),span deviation,mass concentration of particles derived from Lorenz-Mie calculation of OPC scattering (μg/m³),mass concentration of particles derived from Lorenz-Mie calculation of OPC scattering (μg/m³),mass concentration of particles derived from Lorenz-Mie calculation of OPC scattering (μg/m³)
DateTimeUTC,F1_M11,P_M11,Q1_M11,Q2_M11,T1_M11,T2_M11,T3_M11,T4_M11,T5_M11,U1_M11,ZSPAN_M11,X0_M11,X2_M11,X1_M11
2024-01-26 23:00:00,SystemResetWarning,0834.8,4.99,000.00,023.5,022.8,000.0,031.8,024.9,15.4,0000.0,0004.75,0003.47,0003.27
2024-01-26 23:01:00,SystemResetWarning,0834.9,5.00,000.00,023.6,022.8,000.0,031.8,024.9,15.4,0000.0,0004.72,0003.44,0003.23
2024-01-26 23:02:00,SystemResetWarning,0835.2,5.00,000.00,023.6,022.8,000.0,031.8,024.9,15.4,0000.0,0004.72,0003.40,0003.18
2024-01-26 23:03:00,SystemResetWarning,0835.0,5.00,000.00,023.6,022.8,000.0,031.8,024.9,15.4,0000.0,0004.78,0003.34,0003.13
2024-01-26 23:04:00,SystemResetWarning,0834.7,5.01,000.00,023.6,022.8,000.0,031.8,024.9,15.5,0000.0,0004.76,0003.29,0003.10
2024-01-26 23:05:00,SystemResetWarning,0834.9,5.00,000.00,023.6,022.8,000.0,031.8,024.9,15.5,0000.0,0004.70,0003.26,0003.04
2024-01-26 23:06:00,SystemResetWarning,0835.0,5.00,000.00,023.6,022.8,000.0,031.8,024.9,15.6,0000.0,0004.60,0003.23,0002.99
2024-01-26 23:07:00,SystemResetWarning,0835.1,5.00,000.00,023.6,022.8,000.0,031.8,025.0,15.7,0000.0,0004.55,0003.21,0002.93
2024-01-26 23:08:00,SystemResetWarning,0835.2,5.00,000.00,023.6,022.8,000.0,031.8,025.0,15.7,0000.0,0004.35,0003.16,0002.86
2024-01-26 23:09:00,SystemResetWarning,0835.1,5.00,000.00,023.6,022.8,000.0,031.9,025.0,15.6,0000.0,0004.35,0003.14,0002.80
2024-01-26 23:10:00,SystemResetWarning,0834.9,4.99,000.00,023.6,022.8,000.0,031.9,025.0,15.7,0000.0,0004.17,0003.12,0002.76
2024-01-26 23:11:00,SystemResetWarning,0834.9,5.00,000.00,023.6,022.8,000.0,031.9,025.0,15.9,0000.0,0004.06,0003.10,0002.73
2024-01-26 23:12:00,SystemResetWarning,0834.7,5.00,000.00,023.6,022.8,000.0,031.9,025.0,16.1,0000.0,0004.22,0003.10,0002.73
2024-01-26 23:13:00,SystemResetWarning,0834.8,5.00,000.00,023.6,022.8,000.0,031.9,024.9,16.3,0000.0,0004.36,0003.13,0002.75
2024-01-26 23:14:00,SystemResetWarning,0834.5,5.00,000.00,023.6,022.8,000.0,031.9,024.9,16.5,0000.0,0004.81,0003.15,0002.76
2024-01-26 23:15:00,SystemResetWarning,0834.6,5.00,000.00,023.6,022.8,000.0,031.9,024.9,16.6,0000.0,0004.67,0003.16,0002.76
2024-01-26 23:16:00,SystemResetWarning,0834.7,5.00,000.00,023.6,022.8,000.0,031.9,025.0,16.5,0000.0,0004.70,0003.16,0002.75
2024-01-26 23:17:00,SystemResetWarning,0834.8,5.00,000.00,023.6,022.8,000.0,031.9,025.0,16.4,0000.0,0004.64,0003.14,0002.75
2024-01-26 23:18:00,SystemResetWarning,0834.7,5.01,000.00,023.6,022.8,000.0,031.9,025.0,16.6,0000.0,0004.62,0003.13,0002.75
2024-01-26 23:19:00,SystemResetWarning,0834.6,5.00,000.00,023.6,022.8,000.0,031.9,025.0,16.7,0000.0,0004.86,0003.15,0002.75
2024-01-26 23:20:00,SystemResetWarning,0834.6,5.00,000.00,023.6,022.8,000.0,031.9,025.0,16.7,0000.0,0004.83,0003.14,0002.75
2024-01-26 23:21:00,SystemResetWarning,0834.6,5.00,000.00,023.6,022.8,000.0,031.9,025.0,16.8,0000.0,0005.20,0003.15,0002.76
2024-01-26 23:22:00,SystemResetWarning,0835.0,5.00,000.00,023.6,022.8,000.0,031.9,025.0,16.9,0000.0,0006.59,0003.19,0002.80
2024-01-26 23:23:00,SystemResetWarning,0834.7,5.00,000.00,023.6,022.8,000.0,031.9,025.0,16.8,0000.0,0006.61,0003.22,0002.81
2024-01-26 23:24:00,SystemResetWarning,0835.1,5.00,000.00,023.6,022.8,000.0,031.9,025.0,16.8,0000.0,0006.48,0003.19,0002.80
2024-01-26 23:25:00,SystemResetWarning,0835.3,5.00,000.00,023.6,022.8,000.0,031.9,025.0,16.7,0000.0,0007.15,0003.18,0002.80
2024-01-26 23:26:00,SystemResetWarning,0835.2,5.00,000.00,023.6,022.8,000.0,031.9,025.0,16.7,0000.0,0007.20,0003.18,0002.80
2024-01-26 23:27:00,SystemResetWarning,0835.0,4.99,000.00,023.6,022.8,000.0,031.9,025.0,16.7,0000.0,0007.49,0003.23,0002.82
2024-01-26 23:28:00,SystemResetWarning,0835.1,5.00,000.00,023.7,022.8,000.0,031.9,025.0,16.6,0000.0,0007.53,0003.24,0002.81
2024-01-26 23:29:00,SystemResetWarning,0835.1,5.00,000.00,023.6,022.8,000.0,031.9,025.0,16.7,0000.0,0007.50,0003.23,0002.81
2024-01-26 23:30:00,SystemResetWarning,0835.2,5.00,000.00,023.7,022.8,000.0,031.9,025.0,16.7,0000.0,0007.34,0003.19,0002.81
2024-01-26 23:31:00,SystemResetWarning,0835.2,5.00,000.00,023.7,022.8,000.0,031.9,025.0,16.6,0000.0,0007.33,0003.19,0002.81
2024-01-26 23:32:00,SystemResetWarning,0835.1,5.01,000.00,023.7,022.8,000.0,031.9,025.0,16.4,0000.0,0007.22,0003.21,0002.80
2024-01-26 23:33:00,SystemResetWarning,0835.2,5.01,000.00,023.7,022.8,000.0,031.9,025.0,16.4,0000.0,0005.94,0003.19,0002.78
2024-01-26 23:34:00,SystemResetWarning,0835.3,5.00,000.00,023.7,022.8,000.0,031.9,025.0,16.4,0000.0,0005.90,0003.18,0002.78
2024-01-26 23:35:00,SystemResetWarning,0835.0,5.00,000.00,023.7,022.8,000.0,031.9,025.0,16.4,0000.0,0006.04,0003.20,0002.80
2024-01-26 23:36:00,SystemResetWarning,0835.2,4.99,000.00,023.7,022.8,000.0,031.9,025.0,16.4,0000.0,0004.90,0003.22,0002.80
2024-01-26 23:37:00,SystemResetWarning,0835.1,5.00,000.00,023.7,022.8,000.0,031.9,025.0,16.3,0000.0,0004.73,0003.22,0002.81
2024-01-26 23:38:00,SystemResetWarning,0835.3,5.00,000.00,023.7,022.8,000.0,031.9,025.0,16.1,0000.0,0004.24,0003.18,0002.80
2024-01-26 23:39:00,SystemResetWarning,0835.3,5.00,000.00,023.7,022.8,000.0,031.9,025.0,16.1,0000.0,0004.26,0003.16,0002.80
2024-01-26 23:40:00,SystemResetWarning,0835.0,5.00,000.00,023.7,022.8,000.0,031.9,025.0,16.0,0000.0,0004.39,0003.16,0002.80
2024-01-26 23:41:00,SystemResetWarning,0834.7,5.00,000.00,023.7,022.8,000.0,032.0,025.0,15.9,0000.0,0004.53,0003.18,0002.80
2024-01-26 23:42:00,SystemResetWarning,0834.7,5.00,000.00,023.7,022.8,000.0,032.0,025.0,15.8,0000.0,0004.73,0003.21,0002.80
2024-01-26 23:43:00,SystemResetWarning,0834.7,5.00,000.00,023.7,022.8,000.0,032.0,025.0,15.7,0000.0,0004.73,0003.23,0002.82
2024-01-26 23:44:00,SystemResetWarning,0834.7,4.99,000.00,023.7,022.8,000.0,032.0,025.0,15.5,0000.0,0004.78,0003.23,0002.85
2024-01-26 23:45:00,SystemResetWarning,0834.7,4.99,000.00,023.7,022.8,000.0,032.0,025.0,15.4,0000.0,0005.02,0003.23,0002.86
2024-01-26 23:46:00,SystemResetWarning,0834.7,4.99,000.00,023.7,022.8,000.0,032.0,025.0,15.5,0000.0,0005.08,0003.23,0002.87
2024-01-26 23:47:00,SystemResetWarning,0834.8,5.00,000.00,023.7,022.8,000.0,032.0,025.1,15.5,0000.0,0004.93,0003.22,0002.87
2024-01-26 23:48:00,SystemResetWarning,0834.8,5.01,000.00,023.7,022.8,000.0,032.0,025.1,15.5,0000.0,0005.04,0003.22,0002.87
2024-01-26 23:49:00,SystemResetWarning,0834.8,5.01,000.00,023.7,022.8,000.0,032.0,025.1,15.5,0000.0,0005.01,0003.21,0002.87
2024-01-26 23:50:00,SystemResetWarning,0834.9,4.99,000.00,023.7,022.8,000.0,032.0,025.1,15.6,0000.0,0004.94,0003.21,0002.86
2024-01-26 23:51:00,SystemResetWarning,0835.3,4.99,000.00,023.7,022.8,000.0,032.0,025.1,15.7,0000.0,0004.81,0003.21,0002.85
2024-01-26 23:52:00,SystemResetWarning,0835.3,5.00,000.00,023.7,022.8,000.0,032.0,025.1,15.7,0000.0,0004.74,0003.20,0002.84
2024-01-26 23:53:00,SystemResetWarning,0835.3,5.01,000.00,023.7,022.8,000.0,032.0,025.1,15.7,0000.0,0004.81,0003.18,0002.82
2024-01-26 23:54:00,SystemResetWarning,0835.4,5.01,000.00,023.7,022.8,000.0,032.0,025.1,15.8,0000.0,0004.87,0003.15,0002.79
2024-01-26 23:55:00,SystemResetWarning,0835.4,4.99,000.00,023.7,022.8,000.0,032.0,025.1,15.8,0000.0,0005.12,0003.13,0002.75
2024-01-26 23:56:00,SystemResetWarning,0835.3,4.99,000.00,023.7,022.8,000.0,032.0,025.1,15.7,0000.0,0004.88,0003.13,0002.73
2024-01-26 23:57:00,SystemResetWarning,0835.4,4.99,000.00,023.7,022.8,000.0,032.0,025.1,15.6,0000.0,0004.77,0003.12,0002.72
2024-01-26 23:58:00,SystemResetWarning,0835.4,5.00,000.00,023.7,022.8,000.0,032.0,025.1,15.6,0000.0,0004.77,0003.10,0002.70
2024-01-26 23:59:00,SystemResetWarning,0835.3,4.99,000.00,023.7,022.8,000.0,032.0,025.1,15.7,0000.0,0004.60,0003.09,0002.69
